Time,TemperatureF,DewpointF,PressureIn,WindDirection,WindDirectionDegrees,WindSpeedMPH,WindSpeedGustMPH,Humidity,HourlyPrecipIn,Conditions,Clouds,dailyrainin,SoftwareType,DateUTC
2013-08-05 00:10:00,54.9,51.4,29.73,ENE,67,1.7,-999.0,88,-99.99,,,0.00,Acu-Link.com,2013-08-05 07:10:00,
2013-08-05 00:25:00,54.3,51.1,29.73,ENE,67,2.2,-999.0,89,-99.99,,,0.00,Acu-Link.com,2013-08-05 07:25:00,
2013-08-05 00:41:00,54.1,50.9,29.73,WNW,292,0.0,-999.0,89,-99.99,,,0.00,Acu-Link.com,2013-08-05 07:41:00,
2013-08-05 00:56:00,54.1,50.9,29.73,West,270,4.2,-999.0,89,-99.99,,,0.00,Acu-Link.com,2013-08-05 07:56:00,
2013-08-05 01:12:00,53.8,50.9,29.73,WNW,292,2.7,-999.0,90,-99.99,,,0.00,Acu-Link.com,2013-08-05 08:12:00,
2013-08-05 01:27:00,53.8,50.9,29.74,NE,45,2.7,-999.0,90,-99.99,,,0.00,Acu-Link.com,2013-08-05 08:27:00,
2013-08-05 01:42:00,53.8,50.9,29.73,East,90,3.2,-999.0,90,-99.99,,,0.00,Acu-Link.com,2013-08-05 08:42:00,
2013-08-05 02:28:00,52.7,50.4,29.73,SE,135,2.2,-999.0,92,-99.99,,,0.00,Acu-Link.com,2013-08-05 09:28:00,
2013-08-05 02:43:00,52.7,50.4,29.73,ESE,112,1.7,-999.0,92,-99.99,,,0.00,Acu-Link.com,2013-08-05 09:43:00,
2013-08-05 02:58:00,52.5,50.2,29.73,SSW,202,2.2,-999.0,92,-99.99,,,0.00,Acu-Link.com,2013-08-05 09:58:00,
2013-08-05 03:29:00,52.5,50.2,29.73,East,90,0.0,-999.0,92,-99.99,,,0.00,Acu-Link.com,2013-08-05 10:29:00,
2013-08-05 03:59:00,52.2,50.2,29.73,SE,135,1.1,-999.0,93,-99.99,,,0.00,Acu-Link.com,2013-08-05 10:59:00,
2013-08-05 04:14:00,52.2,50.2,29.72,South,180,1.1,-999.0,93,-99.99,,,0.00,Acu-Link.com,2013-08-05 11:14:00,
2013-08-05 04:30:00,51.6,49.6,29.72,WSW,247,0.0,-999.0,93,-99.99,,,0.00,Acu-Link.com,2013-08-05 11:30:00,
2013-08-05 04:45:00,52.0,50.0,29.72,West,270,2.7,-999.0,93,-99.99,,,0.00,Acu-Link.com,2013-08-05 11:45:00,
2013-08-05 05:00:00,52.0,50.0,29.72,NW,315,0.0,-999.0,93,-99.99,,,0.00,Acu-Link.com,2013-08-05 12:00:00,
2013-08-05 05:15:00,51.8,49.8,29.73,West,270,4.2,-999.0,93,-99.99,,,0.00,Acu-Link.com,2013-08-05 12:15:00,
2013-08-05 05:30:00,51.8,49.8,29.73,WSW,247,0.0,-999.0,93,-99.99,,,0.00,Acu-Link.com,2013-08-05 12:30:00,
2013-08-05 05:46:00,51.6,49.6,29.73,SW,225,0.0,-999.0,93,-99.99,,,0.00,Acu-Link.com,2013-08-05 12:46:00,
2013-08-05 06:16:00,51.4,49.4,29.74,WNW,292,1.7,-999.0,93,-99.99,,,0.00,Acu-Link.com,2013-08-05 13:16:00,
2013-08-05 06:32:00,51.1,49.1,29.75,WNW,292,2.7,-999.0,93,-99.99,,,0.00,Acu-Link.com,2013-08-05 13:32:00,
2013-08-05 06:47:00,51.1,49.1,29.75,SSW,202,0.0,-999.0,93,-99.99,,,0.00,Acu-Link.com,2013-08-05 13:47:00,
2013-08-05 07:02:00,51.4,49.7,29.75,SE,135,0.0,-999.0,94,-99.99,,,0.00,Acu-Link.com,2013-08-05 14:02:00,
2013-08-05 07:18:00,53.1,51.1,29.76,South,180,0.0,-999.0,93,-99.99,,,0.00,Acu-Link.com,2013-08-05 14:18:00,
2013-08-05 07:33:00,54.5,52.2,29.76,SSE,157,1.7,-999.0,92,-99.99,,,0.00,Acu-Link.com,2013-08-05 14:33:00,
2013-08-05 07:48:00,57.0,52.9,29.76,ESE,112,0.0,-999.0,86,-99.99,,,0.00,Acu-Link.com,2013-08-05 14:48:00,
2013-08-05 08:04:00,59.4,53.9,29.76,West,270,0.0,-999.0,82,-99.99,,,0.00,Acu-Link.com,2013-08-05 15:04:00,
2013-08-05 08:19:00,59.2,53.7,29.77,SE,135,1.7,-999.0,82,-99.99,,,0.00,Acu-Link.com,2013-08-05 15:19:00,
2013-08-05 08:34:00,59.4,53.6,29.77,WSW,247,3.2,-999.0,81,-99.99,,,0.00,Acu-Link.com,2013-08-05 15:34:00,
2013-08-05 08:49:00,60.4,53.9,29.77,East,90,2.7,-999.0,79,-99.99,,,0.00,Acu-Link.com,2013-08-05 15:49:00,
2013-08-05 09:20:00,61.7,53.7,29.78,SE,135,2.7,-999.0,75,-99.99,,,0.00,Acu-Link.com,2013-08-05 16:20:00,
2013-08-05 09:50:00,64.0,54.0,29.78,West,270,4.7,-999.0,70,-99.99,,,0.00,Acu-Link.com,2013-08-05 16:50:00,
2013-08-05 10:06:00,65.1,55.1,29.78,WSW,247,2.7,-999.0,70,-99.99,,,0.00,Acu-Link.com,2013-08-05 17:06:00,
2013-08-05 10:36:00,67.6,55.0,29.78,SW,225,2.2,-999.0,64,-99.99,,,0.00,Acu-Link.com,2013-08-05 17:36:00,
2013-08-05 10:51:00,68.7,55.6,29.77,SSE,157,2.7,-999.0,63,-99.99,,,0.00,Acu-Link.com,2013-08-05 17:51:00,
2013-08-05 11:07:00,69.1,55.1,29.77,SSW,202,5.3,-999.0,61,-99.99,,,0.00,Acu-Link.com,2013-08-05 18:07:00,
2013-08-05 11:22:00,71.8,55.7,29.77,West,270,3.7,-999.0,57,-99.99,,,0.00,Acu-Link.com,2013-08-05 18:22:00,
2013-08-05 11:37:00,72.0,55.4,29.77,NE,45,4.7,-999.0,56,-99.99,,,0.00,Acu-Link.com,2013-08-05 18:37:00,
2013-08-05 11:52:00,72.7,56.6,29.76,South,180,2.7,-999.0,57,-99.99,,,0.00,Acu-Link.com,2013-08-05 18:52:00,
2013-08-05 12:07:00,73.9,56.7,29.76,SW,225,3.2,-999.0,55,-99.99,,,0.00,Acu-Link.com,2013-08-05 19:07:00,
2013-08-05 12:38:00,76.5,56.5,29.75,ESE,112,3.2,-999.0,50,-99.99,,,0.00,Acu-Link.com,2013-08-05 19:38:00,
2013-08-05 12:53:00,77.4,56.2,29.75,SSE,157,3.2,-999.0,48,-99.99,,,0.00,Acu-Link.com,2013-08-05 19:53:00,
2013-08-05 13:24:00,80.1,57.4,29.74,South,180,4.7,-999.0,46,-99.99,,,0.00,Acu-Link.com,2013-08-05 20:24:00,
2013-08-05 13:39:00,80.2,58.1,29.73,SW,225,2.7,-999.0,47,-99.99,,,0.00,Acu-Link.com,2013-08-05 20:39:00,
2013-08-05 13:55:00,80.6,57.3,29.72,SSW,202,4.2,-999.0,45,-99.99,,,0.00,Acu-Link.com,2013-08-05 20:55:00,
2013-08-05 14:10:00,82.2,58.1,29.71,West,270,2.7,-999.0,44,-99.99,,,0.00,Acu-Link.com,2013-08-05 21:10:00,
2013-08-05 14:25:00,83.8,56.9,29.71,SSE,157,2.2,-999.0,40,-99.99,,,0.00,Acu-Link.com,2013-08-05 21:25:00,
2013-08-05 14:40:00,84.0,57.7,29.70,SW,225,2.7,-999.0,41,-99.99,,,0.00,Acu-Link.com,2013-08-05 21:40:00,
2013-08-05 15:11:00,84.2,55.8,29.69,WSW,247,4.7,-999.0,38,-99.99,,,0.00,Acu-Link.com,2013-08-05 22:11:00,
2013-08-05 15:26:00,82.9,56.8,29.68,South,180,2.7,-999.0,41,-99.99,,,0.00,Acu-Link.com,2013-08-05 22:26:00,
2013-08-05 15:42:00,83.8,56.2,29.67,SE,135,4.7,-999.0,39,-99.99,,,0.00,Acu-Link.com,2013-08-05 22:42:00,
2013-08-05 15:57:00,84.2,57.2,29.67,SSE,157,1.7,-999.0,40,-99.99,,,0.00,Acu-Link.com,2013-08-05 22:57:00,
2013-08-05 16:12:00,83.8,56.9,29.66,SSE,157,3.2,-999.0,40,-99.99,,,0.00,Acu-Link.com,2013-08-05 23:12:00,
2013-08-05 16:27:00,83.7,56.8,29.66,ENE,67,5.3,-999.0,40,-99.99,,,0.00,Acu-Link.com,2013-08-05 23:27:00,
2013-08-05 16:43:00,84.7,57.0,29.66,WSW,247,3.2,-999.0,39,-99.99,,,0.00,Acu-Link.com,2013-08-05 23:43:00,
2013-08-05 16:58:00,82.6,56.5,29.66,WSW,247,2.7,-999.0,41,-99.99,,,0.00,Acu-Link.com,2013-08-05 23:58:00,
2013-08-05 17:13:00,82.8,56.7,29.66,NNW,337,3.7,-999.0,41,-99.99,,,0.00,Acu-Link.com,2013-08-06 00:13:00,
2013-08-05 17:29:00,82.9,56.1,29.65,WNW,292,4.2,-999.0,40,-99.99,,,0.00,Acu-Link.com,2013-08-06 00:29:00,
2013-08-05 17:44:00,82.8,56.0,29.65,SSE,157,3.7,-999.0,40,-99.99,,,0.00,Acu-Link.com,2013-08-06 00:44:00,
2013-08-05 17:59:00,82.2,56.1,29.65,ESE,112,3.2,-999.0,41,-99.99,,,0.00,Acu-Link.com,2013-08-06 00:59:00,
2013-08-05 18:14:00,82.0,56.6,29.65,ENE,67,3.7,-999.0,42,-99.99,,,0.00,Acu-Link.com,2013-08-06 01:14:00,
2013-08-05 18:29:00,81.0,56.4,29.65,SSW,202,1.7,-999.0,43,-99.99,,,0.00,Acu-Link.com,2013-08-06 01:29:00,
2013-08-05 18:45:00,77.5,55.1,29.66,West,270,2.2,-999.0,46,-99.99,,,0.00,Acu-Link.com,2013-08-06 01:45:00,
2013-08-05 19:00:00,75.9,55.4,29.66,WSW,247,1.7,-999.0,49,-99.99,,,0.00,Acu-Link.com,2013-08-06 02:00:00,
2013-08-05 19:15:00,72.5,55.9,29.66,SE,135,1.7,-999.0,56,-99.99,,,0.00,Acu-Link.com,2013-08-06 02:15:00,
2013-08-05 19:30:00,70.0,55.0,29.66,East,90,1.7,-999.0,59,-99.99,,,0.00,Acu-Link.com,2013-08-06 02:30:00,
2013-08-05 19:46:00,66.4,55.1,29.67,WNW,292,2.2,-999.0,67,-99.99,,,0.00,Acu-Link.com,2013-08-06 02:46:00,
2013-08-05 20:01:00,64.9,54.1,29.67,SE,135,2.7,-999.0,68,-99.99,,,0.00,Acu-Link.com,2013-08-06 03:01:00,
2013-08-05 20:16:00,62.1,54.4,29.67,SW,225,1.1,-999.0,76,-99.99,,,0.00,Acu-Link.com,2013-08-06 03:16:00,
2013-08-05 20:32:00,60.8,53.5,29.68,NW,315,2.7,-999.0,77,-99.99,,,0.00,Acu-Link.com,2013-08-06 03:32:00,
2013-08-05 20:47:00,59.7,53.2,29.69,WNW,292,2.2,-999.0,79,-99.99,,,0.00,Acu-Link.com,2013-08-06 03:47:00,
2013-08-05 21:02:00,59.9,52.7,29.69,West,270,3.7,-999.0,77,-99.99,,,0.00,Acu-Link.com,2013-08-06 04:02:00,
2013-08-05 21:18:00,59.5,51.9,29.69,NW,315,3.7,-999.0,76,-99.99,,,0.00,Acu-Link.com,2013-08-06 04:18:00,
2013-08-05 21:33:00,59.5,51.6,29.70,SSE,157,2.7,-999.0,75,-99.99,,,0.00,Acu-Link.com,2013-08-06 04:33:00,
2013-08-05 21:48:00,59.2,51.3,29.71,West,270,2.2,-999.0,75,-99.99,,,0.00,Acu-Link.com,2013-08-06 04:48:00,
2013-08-05 22:03:00,57.9,50.7,29.71,North,0,0.0,-999.0,77,-99.99,,,0.00,Acu-Link.com,2013-08-06 05:03:00,
2013-08-05 22:19:00,57.4,50.6,29.71,WSW,247,2.7,-999.0,78,-99.99,,,0.00,Acu-Link.com,2013-08-06 05:19:00,
2013-08-05 22:34:00,56.7,50.6,29.71,East,90,1.7,-999.0,80,-99.99,,,0.00,Acu-Link.com,2013-08-06 05:34:00,
2013-08-05 22:49:00,56.5,50.4,29.71,South,180,3.7,-999.0,80,-99.99,,,0.00,Acu-Link.com,2013-08-06 05:49:00,
2013-08-05 23:05:00,55.9,50.5,29.71,SSE,157,2.2,-999.0,82,-99.99,,,0.00,Acu-Link.com,2013-08-06 06:05:00,
2013-08-05 23:20:00,55.4,50.3,29.71,West,270,2.7,-999.0,83,-99.99,,,0.00,Acu-Link.com,2013-08-06 06:20:00,
2013-08-05 23:35:00,54.9,50.2,29.72,West,270,3.2,-999.0,84,-99.99,,,0.00,Acu-Link.com,2013-08-06 06:35:00,
2013-08-05 23:50:00,54.7,50.3,29.71,NE,45,1.7,-999.0,85,-99.99,,,0.00,Acu-Link.com,2013-08-06 06:50:00,